Location: Highridge
(54.0333°N, 114.1333°W)
Time: 22:48:34
(UTC+00:00)

Envisat - Visible Passes

Search period start: 24 June 2024 00:00
Search period end: 04 July 2024 00:00
Orbit: 762 x 764 km, 98.3° (Epoch: 24 June)

Date Brightness Start Highest point End Pass type
(mag) Time Alt. Az. Time Alt. Az. Time Alt. Az.
24 Jun 5.3 09:45:57 10° NE 09:49:38 20° E 09:53:19 10° SE visible
26 Jun 4.7 10:09:41 10° NNE 10:14:09 30° E 10:18:35 10° SSE visible
27 Jun 5.4 09:33:14 10° NE 09:36:19 16° E 09:39:22 10° ESE visible
29 Jun 5.0 09:56:46 10° NE 10:00:52 24° E 10:04:56 10° SE visible
30 Jun 5.6 09:20:48 10° ENE 09:22:57 13° E 09:25:05 10° ESE visible
02 Jul 5.3 09:43:55 10° NE 09:47:33 19° E 09:51:10 10° SE visible
